Home > Weather > Ciudad del Este > Past weeks

Flag for Paraguay Weather for the Past 2 Weeks in Ciudad del Este, Paraguay

Now
75 °F

Passing clouds.


Feels Like: 74 °F
Forecast: 71 / 93 °F
Wind: No wind

Location: Foz Do Iguacu Aeroporto

Current Time: Feb 11, 2016 at 7:08:11 AM

Latest Report: Feb 11, 2016 at 6:00 AM


Visibility: N/A

Pressure: 29.89 "Hg

Humidity: 94%

Dew point: 73 °F

Location of Ciudad del EsteLocation

Historic Weather in Ciudad del Este — Graph

°F

Ciudad del Este Temperature Yesterday

Maximum temperature yesterday: 88 °F (at 2:00 PM)
Minimum temperature yesterday: 73 °F (at 12:00 AM)
Average temperature yesterday: 79 °F

High & Low Weather Summary for the Past Weeks

 TemperatureHumidityPressure
High99 °F (Jan 29, 3:00 PM)100% (Jan 27, 7:00 AM)30.04 "Hg (Jan 27, 7:00 AM)
Low36 °F (Feb 3, 6:00 PM)42% (Jan 29, 3:00 PM)29.74 "Hg (Jan 29, 5:00 PM)
Average78 °F81%29.90 "Hg
* Reported Jan 27 6:00 AM — Feb 11 6:00 AM, Ciudad del Este, Weather by CustomWeather, © 2016

Note: Actual official high and low records may vary slightly from our data, if they occured in-between our weather recording intervals... More about our weather records

Advertising

Ciudad del Este Weather History for the Previous 24 Hours

 ConditionsComfort  
Time TempWeatherWind HumidityBarometerVisibility
6:00 AM
Thu, Feb 11
75 °FPassing clouds.No wind94%29.89 "HgN/A
5:00 AM75 °FPassing clouds.5 mph94%29.89 "HgN/A
4:00 AM75 °FPassing clouds.2 mph94%29.89 "HgN/A
3:00 AM75 °FPassing clouds.2 mph94%29.89 "HgN/A
2:00 AM77 °FPassing clouds.3 mph94%29.89 "HgN/A
1:00 AM77 °FPassing clouds.3 mph94%29.92 "HgN/A
12:00 AM77 °FPassing clouds.7 mph94%29.92 "HgN/A
11:00 PM
Wed, Feb 10
77 °FPassing clouds.No wind94%29.95 "HgN/A
10:00 PM79 °FThunderstorms. Partly cloudy.3 mph89%29.95 "HgN/A
9:00 PM79 °FThunderstorms. Partly cloudy.3 mph89%29.95 "HgN/A
8:00 PM79 °FThunderstorms. Partly cloudy.3 mph89%29.92 "HgN/A
7:00 PM81 °FScattered showers. Scattered clouds.5 mph84%N/AN/A
6:00 PM81 °FScattered showers. Scattered clouds.6 mph84%29.89 "HgN/A
4:00 PM88 °FScattered showers. Scattered clouds.8 mph70%N/AN/A
3:00 PM88 °FScattered clouds.7 mph70%29.92 "HgN/A
2:00 PM88 °FPartly sunny.8 mph66%29.95 "HgN/A
1:00 PM86 °FPartly sunny.7 mph70%29.98 "HgN/A
12:00 PM84 °FBroken clouds.6 mph74%29.98 "HgN/A
11:00 AM84 °FPartly sunny.8 mph70%29.98 "HgN/A
10:00 AM82 °FScattered clouds.6 mph74%29.98 "HgN/A
9:00 AM81 °FScattered clouds.7 mph79%29.95 "HgN/A
8:00 AM77 °FScattered clouds.6 mph89%29.95 "HgN/A
7:00 AM75 °FPartly sunny.3 mph89%29.95 "HgN/A
Weather by CustomWeather, © 2016

See weather overviewHow to use our weather pages